User: anonymous   Login
Location: Unspecified
(0.0000°N, 0.0000°E)
Time: 06:40:22
(UTC+00:00)
Language:

KKS-1 - Orbit

View from above orbital plane
View from above orbital plane
View from above satellite
View from above satellite

Ground track
Ground track

The orbit data is extracted from the following two-line orbital elements,

1 33499U 09002H   19082.86837832  .00000076  00000-0  19266-4 0  9995
2 33499  98.3549 278.7765 0010309 119.3087 240.9152 14.75416166546427
Epoch (UTC): 23 March 2019 20:50:27
Eccentricity: 0.0010309
inclination: 98.3549°
perigee height: 636 km
apogee height: 651 km
right ascension of ascending node: 278.7765°
argument of perigee: 119.3087°
revolutions per day: 14.75416166
mean anomaly at epoch: 240.9152°
orbit number at epoch: 54642

The dashed part of the orbit path shows where the satellite is in the earth's shadow,  

DLR